Regional Weather Roundup
Issued by NWS

Home | Current Version | Previous Version | Graphics & Text | Print | Product List | Glossary On
Versions: 1 2 3 4 5 6 7 8 9 10 11 12 13 14 15 16 17 18 19 20 21 22 23 24 25 26 27 28 29 30 31 32 33 34 35 36 37 38 39 40 41 42 43 44 45 46 47 48 49 50
000
ASUS43 KOAX 111810
RWRNE

WEATHER ROUNDUP FOR NEBRASKA
NATIONAL WEATHER SERVICE OMAHA NE
1200 PM CST THU FEB 11 2016

NOTES: SATELLITE DATA IS BEING USED TO AUGMENT CLOUD COVER ABOVE
       12000 FEET.
       "FAIR" INDICATES FEW OR NO CLOUDS BELOW 12,000 FEET WITH NO
       SIGNIFICANT WEATHER AND/OR OBSTRUCTIONS TO VISIBILITY.

  * THESE STATIONS DO NOT REPORT WEATHER SUCH AS RAIN...SNOW OR FOG.

NEZ001>004-019>022-054>056-111900-
NEBRASKA PANHANDLE

CITY           SKY/WX    TMP DP  RH WIND       PRES   REMARKS
SCOTTSBLUFF    SUNNY     55  25  31 NW20G25   30.11R
6HR MIN TEMP:  32; 6HR MAX TEMP:  56;

ALLIANCE       SUNNY     45  31  58 W13       30.07R
6HR MIN TEMP:  26; 6HR MAX TEMP:  45;

CHADRON        CLOUDY    54  29  38 NW22G28   30.06S
6HR MIN TEMP:  27; 6HR MAX TEMP:  55;

KIMBALL        CLOUDY    54  25  32 NW24G30   30.12S
SIDNEY         CLOUDY    50  30  46 NW10      30.11R
6HR MIN TEMP:  33; 6HR MAX TEMP:  50;

$$

NEZ057>060-069>072-079>082-111900-
SOUTHWEST NEBRASKA

CITY           SKY/WX    TMP DP  RH WIND       PRES   REMARKS
NORTH PLATTE   PTSUNNY   31  27  85 S9        30.08F WCI  23
6HR MIN TEMP:  26; 6HR MAX TEMP:  31;

IMPERIAL         N/A     46  28  49 MISG      30.09S
6HR MIN TEMP:  23; 6HR MAX TEMP:  46;

LEXINGTON      CLOUDY    31  28  90 S12       30.13F WCI  22
MCCOOK         CLOUDY    33  30  88 S7        30.12F WCI  27
6HR MIN TEMP:  22; 6HR MAX TEMP:  33;

OGALLALA       SUNNY     44  32  61 W7        30.07S
$$

NEZ005>010-023>029-035>040-094-111900-
NORTH CENTRAL NEBRASKA

CITY           SKY/WX    TMP DP  RH WIND       PRES   REMARKS
VALENTINE      PTSUNNY   36  30  79 S12       30.04F WCI  28
6HR MIN TEMP:  28; 6HR MAX TEMP:  36;

AINSWORTH      CLOUDY    32  31  95 S14       30.05F WCI  22
BROKEN BOW     CLOUDY    30  29  96 S13       30.10F FOG     WCI  20
6HR MIN TEMP:  30; 6HR MAX TEMP:  31;

O`NEILL        CLOUDY    27  26  96 S15       30.11F FOG     WCI  16
ORD            CLOUDY    27  26  96 SE14      30.13F FOG     WCI  16
6HR MIN TEMP:  26; 6HR MAX TEMP:  27;

THEDFORD       CLOUDY    41  32  72 SW9       30.05F
$$

NEZ041-046>049-061>064-073>077-083>087-111900-
SOUTH CENTRAL NEBRASKA

CITY           SKY/WX    TMP DP  RH WIND       PRES   REMARKS
GRAND ISLAND   CLOUDY    25  22  88 S10       30.20F FOG     WCI  15
6HR MIN TEMP:  24; 6HR MAX TEMP:  26;

AURORA         CLOUDY    26  23  89 S9        30.20F WCI  16
HASTINGS       CLOUDY    27  22  81 S6        30.19F WCI  20
6HR MIN TEMP:  25; 6HR MAX TEMP:  27;

HEBRON         CLOUDY    24  22  91 SE3       30.26F FOG
HOLDREGE       CLOUDY    30  28  90 S12       30.14F WCI  21
KEARNEY *      CLOUDY    28  25  86 SE14      30.17F WCI  17
YORK           CLOUDY    25  21  86 S8        30.22F WCI  16
$$

NEZ011>018-030>034-042>045-111900-
NORTHEAST NEBRASKA

CITY           SKY/WX    TMP DP  RH WIND       PRES   REMARKS
NORFOLK        LGT SNOW  22  17  81 S14       30.19F WCI   9
6HR MIN TEMP:  19; 6HR MAX TEMP:  22; 6HR PCP:  0.01;

ALBION         CLOUDY    24  21  89 S13       30.19S FOG     WCI  12
BLAIR          CLOUDY    19   9  63 SE7       30.27F WCI  10
COLUMBUS *     CLOUDY    21  10  63 SE10      30.22F WCI  10
FREMONT        CLOUDY    20  10  64 SE8       30.27F WCI  11
TEKAMAH        CLOUDY    17   7  64 SE14      30.29F WCI   3
6HR MIN TEMP:  15; 6HR MAX TEMP:  17;

WAYNE          FLURRIES  19  14  79 S14       30.23F WCI   6
$$

NEZ050>053-065>068-078-088>093-111900-
SOUTHEAST NEBRASKA

CITY           SKY/WX    TMP DP  RH WIND       PRES   REMARKS
LINCOLN        CLOUDY    24  18  77 SE6       30.29F WCI  17
6HR MIN TEMP:  18; 6HR MAX TEMP:  24;

OMAHA EPPLEY   CLOUDY    19   7  59 SE5       30.31F WCI  12
6HR MIN TEMP:  14; 6HR MAX TEMP:  19;

BEATRICE       CLOUDY    23  20  89 SW3       30.28F
FALLS CITY     MOSUNNY   30  18  60 S7        30.30  WCI  23
6HR MIN TEMP:  20; 6HR MAX TEMP:  30;

NEBRASKA CITY  CLOUDY    28  17  63 SE6       30.29S WCI  21
PLATTSMOUTH    CLOUDY    22  12  65 E3        30.30F
$$

NEZ044-045-051>053-067-111900-
OMAHA AREA

CITY           SKY/WX    TMP DP  RH WIND       PRES   REMARKS
OMAHA EPPLEY   CLOUDY    19   7  59 SE5       30.31F WCI  12
6HR MIN TEMP:  14; 6HR MAX TEMP:  19;

BLAIR          CLOUDY    19   9  63 SE7       30.27F WCI  10
FREMONT        CLOUDY    20  10  64 SE8       30.27F WCI  11
MILLARD        CLOUDY    21   9  60 SE5       30.30F WCI  14
OFFUTT AFB     CLOUDY    21   9  61 SE7       30.29F WCI  12
PLATTSMOUTH    CLOUDY    22  12  65 E3        30.30F
WAHOO          CLOUDY    21  14  75 SE7       30.28F WCI  12
$$



USA.gov is the U.S. government's official web portal to all federal, state and local government web resources and services.